ARIANE 6 R/B, 60239

Orbit data source: Space-Track

ARIANE 6 R/B, 60239 is space debris in LEO originally from a launch on Tue, 09 Jul 2024 UTC via an ARIANE 62 launch vehicle from the French Guiana (FRGUI). Debris objects in space refer to the collection of defunct objects orbiting the Earth. Examples of debris include non-operational satellites, rocket bodies, and fragments generated from explosions, collisions, or faulty payload assembly.

Loading next visibility...
Identifier
60239, 2024-128E
Orbit
LEO
Last TLE update
14 hours ago
Origin
Manufacturer
ArianeGroup
Mission
Spacecraft
Bus & Motor
ARI6DP, Unknown motor
Mass
~7,711 kg wet, 1,600 kg dry
Launch date (UTC)
2024-07-09 (10 months ago)
Launch vehicle
ARIANE 62
Launch site
French Guiana (FRGUI)
Object type
Payload
Rocket body
Debris
Shape & HBR
Cyl + Trunc Cone, 14.1 m
Radar Cross Section
72.787 m², Large (>1 m²)

Expand to show TLE details & history

TLE from 14 hours ago
0 ARIANE 6 R/B
1 60239U 24128E   25129.28965608  .00001408  00000-0  12994-3 0  9991
2 60239  62.0114 192.3091 0050127  52.1304 308.4304 14.98891912 45453
Epoch: 2025-05-09T06:57Z
Definitive object data (Epoch: 2025-05-09T06:57:06.285Z)
Latitude
0.00001°
Longitude
-139.31501°
Altitude
550.545 km
Speed
7.599 km/s
True Right ascension
12h 49m 14s
True Declination
0° 00' 00"
Sunlit
Object was in full shadow at TLE epoch
Visualization TLE readout
Latitude
-25.77861°
Longitude
53.49298°
Altitude
610.762 km
Speed
7.536 km/s
Apparent Right ascension
22h 19m 08s
Apparent Declination
-56° 18' 45"
Sunlit
Object is in daylight
Visualization observer readout
Local Sidereal Time
04:52:25
Azimuth
223.09° SW
Elevation
-36.546°
Doppler factor
1
Orbital elements
Apogee altitude
604.073 km
Perigee altitude
534.423 km
Semi-major axis
6,947.385 km
Eccentricity
0.0050127
Inclination
62.0114°
RAAN
192.3091°
Arg. of periapsis
52.1304°
True anomaly
307.97867°
Mean anomaly
308.4304°
Eccentric anomaly
308.20471°
Mean motion
3.7481 °/min
BSTAR
0.00012994
Orbital period
96.05 mins
Loading maneuver chart data...
Loading SW <> Apogee altitude chart data...
Loading historical data...
Loading historical data...
Loading historical data...
Loading historical data...
Loading historical data...
Loading historical data...
Loading historical data...

ARIANE 6 R/B Visibility forecast

Observer location: undefined°, undefined°

Span
Click to sort rows by Start time (UTC) header in descending order
Start Az.
Max El. time (UTC)
Max El. Az.
Max El.
End time (UTC)
End Az.
6 mins2025-05-10 05:30:14.835Z183.322° SSW2025-05-10 05:33:14.835Z122.9° SE30.848°2025-05-10 05:36:14.835Z57.294° ENE
4 mins2025-05-10 07:11:14.835Z289.097° WNW2025-05-10 07:12:14.835Z310.156° NW20.701°2025-05-10 07:15:14.835Z5.131° NNE
6 mins2025-05-10 13:54:14.835Z350.332° N2025-05-10 13:56:14.835Z38.469° NE32.705°2025-05-10 14:00:14.835Z118.772° SE
4 mins2025-05-10 15:34:14.835Z266.03° W2025-05-10 15:35:14.835Z246.925° WSW18.738°2025-05-10 15:38:14.835Z199.251° SSW
|